Find Starlink 30240

NORAD ID: 57404 Int'l Des: 2023-102 Owner: SPXS Country: US Constellation: starlink operational
LEOCIRCULAR

实时位置

正在加载3D地球...

关于 Starlink 30240

正在加载描述...

即将过境

Passes for default location (London). Set your location on the main map for personalized predictions.

高度历史

Loading altitude history...

两行轨道根数

1 57404U 23102A 26123.57492250 -.00000699 00000-0 -15861-4 0 9997
2 57404 43.0023 298.6405 0001305 265.7754 94.2948 15.27580734154630
Epoch: May 3, 2026 • Age: 18 hours

当前状态

高度 495.2 km
速度 7.62 km/s
星下点 -42.38°S, 128.82°W
发射日期 Jul 19, 2023
运行时间 2.7 years
类型 internet

技术详情

分类 Payload
质量 730.00 kg
干质量 700.00 kg
总质量 730.00 kg
长度 0.30 m
直径 4.10 m
跨度 29.00 m
形状 Box + pan
制造商 SPXS
平台类型 Starlink V2M
阶段状态 In Orbit
所有者/国家 SPXS/US

Most Searched